Flag for Norway Weather past 2 weeks in Lørenskog, Norway

Now
34 °F

Chilly.


Feels Like: 34 °F
Forecast: 30 / 37 °F
Wind: 2 mph from Southeast

Location: Oslo-Blindern

Current Time: Feb 27, 2015 at 7:17:38 AM

Latest Report: Feb 27, 2015 at 6:00 AM


Visibility: N/A

Pressure: 29.72 "Hg

Humidity: 96%

Dew point: 33 °F

Location of LørenskogLocation

Historic Weather in Lørenskog — Graph

°F

Lørenskog temperature yesterday

Maximum temperature yesterday: 40 °F (at 10:00 PM)
Minimum temperature yesterday: 35 °F (at 8:00 AM)
Average temperature yesterday: 37 °F

Past Weeks' High & Low Weather Summary

 TemperatureHumidityPressure
High44 °F (Feb 20, 1:00 PM)100% (Feb 12, 8:00 AM)30.55 "Hg (Feb 12, 8:00 AM)
Low27 °F (Feb 22, 8:00 AM)37% (Feb 22, 4:00 PM)28.97 "Hg (Feb 23, 2:00 PM)
Average35 °F87%29.77 "Hg
* Reported Feb 12 6:00 AM — Feb 27 6:00 AM, Lørenskog, Weather by CustomWeather, © 2015

Note: Actual official high and low records may vary slightly from our data, if they occured in-between our weather recording intervals... More about our weather records

Advertising

Lørenskog weather history for previous 24 hours

 ConditionsComfort  
Time TempWeatherWind HumidityBarometerVisibility
6:00 AM
Fri, Feb 27
34 °FChilly.2 mph96%29.72 "HgN/A
5:00 AM34 °FChilly.2 mph96%29.72 "HgN/A
2:00 AM35 °FChilly.3 mph95%29.74 "HgN/A
1:00 AM37 °FLight rain. Low clouds.5 mph94%29.74 "Hg4 mi
12:00 AM37 °FChilly.5 mph91%29.74 "HgN/A
11:00 PM
Thu, Feb 26
38 °FChilly.7 mph85%29.75 "HgN/A
10:00 PM40 °FOvercast.8 mph78%29.75 "Hg19 mi
9:00 PM39 °FChilly.7 mph81%29.77 "HgN/A
8:00 PM38 °FChilly.5 mph85%29.80 "HgN/A
7:00 PM37 °FLow clouds.7 mph84%29.81 "Hg12 mi
6:00 PM37 °FChilly.6 mph84%29.82 "HgN/A
5:00 PM37 °FChilly.7 mph87%29.84 "HgN/A
4:00 PM37 °FLow clouds.6 mph87%29.85 "Hg7 mi
3:00 PM36 °FChilly.8 mph92%29.87 "HgN/A
2:00 PM37 °FChilly.6 mph88%29.88 "HgN/A
1:00 PM37 °FLight rain. Low clouds.7 mph87%29.90 "Hg9 mi
12:00 PM36 °FChilly.5 mph90%29.92 "HgN/A
11:00 AM35 °FChilly.7 mph92%29.94 "HgN/A
10:00 AM37 °FLow clouds.8 mph84%29.94 "Hg12 mi
9:00 AM36 °FChilly.5 mph92%29.96 "HgN/A
8:00 AM35 °FChilly.3 mph90%29.96 "HgN/A
Weather by CustomWeather, © 2015

See weather overviewHow to use our weather pages